,,Stat6,,Stat2,,Stat8,,Stat9,,Stat10,,Wind1,,Wind1,
time,status,PA1M_AVG,status,PR1M_SUM,status,RH1M_AVG,status,SR1M_AVG,status,TA1M_AVG,status,W1dAve1m,status,W1sAve1m,
2009-05-29, 00:00:00,VALID,917.499,VALID,0,VALID,100,VALID,0.0169808,VALID,19.5695,VALID,130,VALID,0,
2009-05-29, 00:01:00,VALID,917.477,VALID,0,VALID,100,VALID,0,VALID,19.5368,VALID,130,VALID,0,
2009-05-29, 00:02:00,VALID,917.472,VALID,0,VALID,100,VALID,0.0169808,VALID,19.5046,VALID,130,VALID,0,
2009-05-29, 00:03:00,VALID,917.474,VALID,0,VALID,100,VALID,0,VALID,19.5086,VALID,130,VALID,0,
2009-05-29, 00:04:00,VALID,917.48,VALID,0,VALID,100,VALID,0.0169808,VALID,19.5011,VALID,130,VALID,0,
2009-05-29, 00:05:00,VALID,917.476,VALID,0,VALID,100,VALID,0,VALID,19.4949,VALID,130,VALID,0,
2009-05-29, 00:06:00,VALID,917.482,VALID,0,VALID,100,VALID,0,VALID,19.4789,VALID,130,VALID,0.228338,
2009-05-29, 00:07:00,VALID,917.483,VALID,0,VALID,100,VALID,0,VALID,19.4689,VALID,130,VALID,0.177326,
2009-05-29, 00:08:00,VALID,917.491,VALID,0,VALID,100,VALID,0.0339617,VALID,19.4587,VALID,125,VALID,0,
2009-05-29, 00:09:00,VALID,917.499,VALID,0,VALID,100,VALID,0.0169808,VALID,19.4397,VALID,119,VALID,0.0351563,
2009-05-29, 00:10:00,VALID,917.493,VALID,0,VALID,100,VALID,0.0169808,VALID,19.4108,VALID,106,VALID,0.000363372,
2009-05-29, 00:11:00,VALID,917.506,VALID,0,VALID,100,VALID,0,VALID,19.3754,VALID,102,VALID,0.0264863,
2009-05-29, 00:12:00,VALID,917.511,VALID,0,VALID,100,VALID,0.0509425,VALID,19.3424,VALID,102,VALID,0,
2009-05-29, 00:13:00,VALID,917.51,VALID,0,VALID,100,VALID,0,VALID,19.3297,VALID,102,VALID,0,
2009-05-29, 00:14:00,VALID,917.504,VALID,0,VALID,100,VALID,0,VALID,19.3357,VALID,108,VALID,0.145597,
2009-05-29, 00:15:00,VALID,917.493,VALID,0,VALID,100,VALID,0.0169808,VALID,19.3522,VALID,112,VALID,0.0285823,
2009-05-29, 00:16:00,VALID,917.493,VALID,0,VALID,100,VALID,0.0169808,VALID,19.3586,VALID,114,VALID,0.0747514,
2009-05-29, 00:17:00,VALID,917.503,VALID,0,VALID,100,VALID,0,VALID,19.3878,VALID,114,VALID,0,
2009-05-29, 00:18:00,VALID,917.506,VALID,0,VALID,100,VALID,0.0169808,VALID,19.3814,VALID,114,VALID,0,
2009-05-29, 00:19:00,VALID,917.503,VALID,0,VALID,100,VALID,0.0339617,VALID,19.3584,VALID,114,VALID,0,
2009-05-29, 00:20:00,VALID,917.528,VALID,0,VALID,100,VALID,0.0339617,VALID,19.3457,VALID,114,VALID,0,
2009-05-29, 00:21:00,VALID,917.536,VALID,0,VALID,100,VALID,0,VALID,19.3262,VALID,114,VALID,0,
2009-05-29, 00:22:00,VALID,917.538,VALID,0,VALID,100,VALID,0,VALID,19.3359,VALID,115,VALID,0,
2009-05-29, 00:23:00,VALID,917.539,VALID,0,VALID,100,VALID,0.0169808,VALID,19.3132,VALID,120,VALID,0,
2009-05-29, 00:24:00,VALID,917.534,VALID,0,VALID,100,VALID,0,VALID,19.2843,VALID,120,VALID,0,
2009-05-29, 00:25:00,VALID,917.519,VALID,0,VALID,100,VALID,0,VALID,19.2611,VALID,128,VALID,0,
2009-05-29, 00:26:00,VALID,917.512,VALID,0,VALID,100,VALID,-0.0169808,VALID,19.268,VALID,137,VALID,0.0866997,
2009-05-29, 00:27:00,VALID,917.518,VALID,0,VALID,100,VALID,0,VALID,19.2968,VALID,133,VALID,0.0435547,
2009-05-29, 00:28:00,VALID,917.52,VALID,0,VALID,100,VALID,0,VALID,19.2933,VALID,114,VALID,0.161855,
2009-05-29, 00:29:00,VALID,917.531,VALID,0,VALID,100,VALID,0,VALID,19.3195,VALID,120,VALID,0.18843,
2009-05-29, 00:30:00,VALID,917.523,VALID,0,VALID,100,VALID,0,VALID,19.3586,VALID,116,VALID,0.0025436,
2009-05-29, 00:31:00,VALID,917.527,VALID,0,VALID,100,VALID,0.0339617,VALID,19.3519,VALID,135,VALID,0,
2009-05-29, 00:32:00,VALID,917.506,VALID,0,VALID,100,VALID,0.0339617,VALID,19.3454,VALID,128,VALID,0.0012429,
2009-05-29, 00:33:00,VALID,917.508,VALID,0,VALID,100,VALID,-0.0339617,VALID,19.3359,VALID,128,VALID,0.271484,
2009-05-29, 00:34:00,VALID,917.503,VALID,0,VALID,100,VALID,0.0169808,VALID,19.3489,VALID,133,VALID,1.09877,
2009-05-29, 00:35:00,VALID,917.515,VALID,0,VALID,100,VALID,0,VALID,19.3522,VALID,130,VALID,0.863814,
2009-05-29, 00:36:00,VALID,917.515,VALID,0,VALID,100,VALID,0,VALID,19.3492,VALID,128,VALID,0.93641,
2009-05-29, 00:37:00,VALID,917.506,VALID,0,VALID,100,VALID,0,VALID,19.3389,VALID,124,VALID,0.494731,
2009-05-29, 00:38:00,VALID,917.496,VALID,0,VALID,100,VALID,0,VALID,19.326,VALID,120,VALID,0.214844,
2009-05-29, 00:39:00,VALID,917.481,VALID,0,VALID,100,VALID,-0.0509425,VALID,19.3237,VALID,120,VALID,0.321911,
2009-05-29, 00:40:00,VALID,917.489,VALID,0,VALID,100,VALID,-0.0679233,VALID,19.3142,VALID,129,VALID,0.165968,
2009-05-29, 00:41:00,VALID,917.478,VALID,0,VALID,100,VALID,-0.0849042,VALID,19.3244,VALID,135,VALID,0.289249,
2009-05-29, 00:42:00,VALID,917.453,VALID,0,VALID,100,VALID,-0.0849042,VALID,19.308,VALID,137,VALID,0.388672,
2009-05-29, 00:43:00,VALID,917.419,VALID,0,VALID,100,VALID,-0.0849042,VALID,19.308,VALID,147,VALID,0.81577,
2009-05-29, 00:44:00,VALID,917.371,VALID,0,VALID,100,VALID,-0.0849042,VALID,19.3082,VALID,145,VALID,0.578683,
2009-05-29, 00:45:00,VALID,917.347,VALID,0,VALID,100,VALID,-0.0509425,VALID,19.3015,VALID,154,VALID,0.932546,
2009-05-29, 00:46:00,VALID,917.315,VALID,0,VALID,100,VALID,-0.101885,VALID,19.3082,VALID,149,VALID,0.982955,
2009-05-29, 00:47:00,VALID,917.267,VALID,0,VALID,100,VALID,-0.101885,VALID,19.3084,VALID,140,VALID,0.691034,
2009-05-29, 00:48:00,VALID,917.23,VALID,0,VALID,100,VALID,-0.118866,VALID,19.3082,VALID,139,VALID,0.256597,
2009-05-29, 00:49:00,VALID,917.219,VALID,0,VALID,100,VALID,-0.101885,VALID,19.3015,VALID,139,VALID,0,
2009-05-29, 00:50:00,VALID,917.229,VALID,0,VALID,100,VALID,-0.101885,VALID,19.2822,VALID,139,VALID,0,
2009-05-29, 00:51:00,VALID,917.225,VALID,0,VALID,100,VALID,-0.0679233,VALID,19.2855,VALID,150,VALID,0.0418527,
2009-05-29, 00:52:00,VALID,917.229,VALID,0,VALID,100,VALID,-0.0679233,VALID,19.2882,VALID,153,VALID,0,
2009-05-29, 00:53:00,VALID,917.211,VALID,0,VALID,100,VALID,-0.101885,VALID,19.2882,VALID,153,VALID,0,
2009-05-29, 00:54:00,VALID,917.207,VALID,0,VALID,100,VALID,-0.0679233,VALID,19.295,VALID,153,VALID,0,
2009-05-29, 00:55:00,VALID,917.209,VALID,0,VALID,100,VALID,-0.0679233,VALID,19.2985,VALID,153,VALID,0,
2009-05-29, 00:56:00,VALID,917.215,VALID,0,VALID,100,VALID,-0.101885,VALID,19.2855,VALID,153,VALID,0,
2009-05-29, 00:57:00,VALID,917.222,VALID,0,VALID,100,VALID,-0.0339617,VALID,19.2658,VALID,153,VALID,0,
2009-05-29, 00:58:00,VALID,917.214,VALID,0,VALID,100,VALID,-0.0169808,VALID,19.2326,VALID,153,VALID,0,
2009-05-29, 00:59:00,VALID,917.208,VALID,0,VALID,100,VALID,-0.0849042,VALID,19.2303,VALID,153,VALID,0.575994,
2009-05-29, 01:00:00,VALID,917.195,VALID,0,VALID,100,VALID,-0.0849042,VALID,19.1719,VALID,153,VALID,0.679688,
2009-05-29, 01:01:00,VALID,917.179,VALID,0,VALID,100,VALID,-0.0849042,VALID,19.1168,VALID,153,VALID,0.738095,
2009-05-29, 01:02:00,VALID,917.174,VALID,0,VALID,100,VALID,-0.0849042,VALID,19.0906,VALID,147,VALID,0.841146,
2009-05-29, 01:03:00,VALID,917.159,VALID,0,VALID,100,VALID,-0.0679233,VALID,19.0776,VALID,140,VALID,0.747738,
2009-05-29, 01:04:00,VALID,917.158,VALID,0,VALID,100,VALID,0.0169808,VALID,19.0497,VALID,141,VALID,0.806868,
2009-05-29, 01:05:00,VALID,917.152,VALID,0,VALID,100,VALID,0.0169808,VALID,19.0699,VALID,146,VALID,0.775724,
2009-05-29, 01:06:00,VALID,917.149,VALID,0,VALID,100,VALID,0.0339617,VALID,19.0732,VALID,133,VALID,0.729403,
2009-05-29, 01:07:00,VALID,917.139,VALID,0,VALID,100,VALID,0,VALID,19.0732,VALID,139,VALID,0.830602,
2009-05-29, 01:08:00,VALID,917.109,VALID,0,VALID,100,VALID,0.0169808,VALID,19.0569,VALID,149,VALID,0.379006,
2009-05-29, 01:09:00,VALID,917.099,VALID,0,VALID,100,VALID,-0.0509425,VALID,19.0484,VALID,142,VALID,0.911951,
2009-05-29, 01:10:00,VALID,917.075,VALID,0,VALID,100,VALID,-0.101885,VALID,19.0584,VALID,141,VALID,1.07965,
2009-05-29, 01:11:00,VALID,917.077,VALID,0,VALID,100,VALID,-0.101885,VALID,19.0649,VALID,134,VALID,0.873698,
2009-05-29, 01:12:00,VALID,917.07,VALID,0,VALID,100,VALID,-0.0509425,VALID,19.0646,VALID,147,VALID,0.742378,
2009-05-29, 01:13:00,VALID,917.062,VALID,0,VALID,100,VALID,-0.101885,VALID,19.0681,VALID,151,VALID,0.917151,
2009-05-29, 01:14:00,VALID,917.052,VALID,0,VALID,100,VALID,-0.0849042,VALID,19.0711,VALID,154,VALID,0.809766,
2009-05-29, 01:15:00,VALID,917.038,VALID,0,VALID,100,VALID,-0.0849042,VALID,19.0746,VALID,148,VALID,0.949963,
2009-05-29, 01:16:00,VALID,917.048,VALID,0,VALID,100,VALID,-0.0679233,VALID,19.0873,VALID,150,VALID,0.788681,
2009-05-29, 01:17:00,VALID,917.039,VALID,0,VALID,100,VALID,-0.0509425,VALID,19.0839,VALID,152,VALID,1.0377,
2009-05-29, 01:18:00,VALID,917.042,VALID,0,VALID,100,VALID,-0.0849042,VALID,19.0938,VALID,155,VALID,0.887674,
2009-05-29, 01:19:00,VALID,917.055,VALID,0,VALID,100,VALID,-0.0679233,VALID,19.0903,VALID,141,VALID,0.846839,
2009-05-29, 01:20:00,VALID,917.043,VALID,0,VALID,100,VALID,-0.118866,VALID,19.0711,VALID,143,VALID,1.20977,
2009-05-29, 01:21:00,VALID,917.038,VALID,0,VALID,100,VALID,-0.0509425,VALID,19.0542,VALID,146,VALID,1.03466,
2009-05-29, 01:22:00,VALID,917.024,VALID,0,VALID,100,VALID,-0.0679233,VALID,19.0509,VALID,147,VALID,1.16206,
2009-05-29, 01:23:00,VALID,916.982,VALID,0,VALID,100,VALID,-0.0509425,VALID,19.038,VALID,147,VALID,0.918713,
2009-05-29, 01:24:00,VALID,916.969,VALID,0,VALID,100,VALID,-0.0679233,VALID,19.0255,VALID,154,VALID,0.89968,
2009-05-29, 01:25:00,VALID,916.953,VALID,0,VALID,100,VALID,-0.0849042,VALID,19.0157,VALID,157,VALID,1.119,
2009-05-29, 01:26:00,VALID,916.95,VALID,0,VALID,100,VALID,-0.0509425,VALID,19.0125,VALID,150,VALID,0.905506,
2009-05-29, 01:27:00,VALID,916.94,VALID,0,VALID,100,VALID,-0.101885,VALID,19.0092,VALID,168,VALID,0.450658,
2009-05-29, 01:28:00,VALID,916.925,VALID,0,VALID,100,VALID,-0.0509425,VALID,19.0097,VALID,155,VALID,0.802379,
2009-05-29, 01:29:00,VALID,916.907,VALID,0,VALID,100,VALID,-0.101885,VALID,19.0032,VALID,155,VALID,0.902845,
2009-05-29, 01:30:00,VALID,916.895,VALID,0,VALID,100,VALID,-0.0679233,VALID,18.9965,VALID,151,VALID,0.794671,
2009-05-29, 01:31:00,VALID,916.875,VALID,0,VALID,100,VALID,-0.0679233,VALID,18.9963,VALID,151,VALID,0.979288,
2009-05-29, 01:32:00,VALID,916.878,VALID,0,VALID,100,VALID,-0.101885,VALID,18.9865,VALID,153,VALID,0.83327,
2009-05-29, 01:33:00,VALID,916.885,VALID,0,VALID,100,VALID,-0.0849042,VALID,18.9805,VALID,163,VALID,0.852134,
2009-05-29, 01:34:00,VALID,916.881,VALID,0,VALID,100,VALID,-0.0849042,VALID,18.9736,VALID,151,VALID,0.794969,
2009-05-29, 01:35:00,VALID,916.867,VALID,0,VALID,100,VALID,-0.0849042,VALID,18.9673,VALID,151,VALID,0.689844,
2009-05-29, 01:36:00,VALID,916.868,VALID,0,VALID,100,VALID,-0.0339617,VALID,18.9571,VALID,152,VALID,0.574777,
2009-05-29, 01:37:00,VALID,916.859,VALID,0,VALID,100,VALID,-0.0849042,VALID,18.9611,VALID,136,VALID,0.982167,
2009-05-29, 01:38:00,VALID,916.86,VALID,0,VALID,100,VALID,-0.0679233,VALID,18.9414,VALID,138,VALID,0.980664,
2009-05-29, 01:39:00,VALID,916.84,VALID,0,VALID,100,VALID,-0.0169808,VALID,18.9501,VALID,127,VALID,1.05278,
2009-05-29, 01:40:00,VALID,916.831,VALID,0,VALID,100,VALID,0,VALID,18.9429,VALID,131,VALID,0.940304,
2009-05-29, 01:41:00,VALID,916.807,VALID,0,VALID,100,VALID,0.0169808,VALID,18.9135,VALID,132,VALID,0.869444,
2009-05-29, 01:42:00,VALID,916.801,VALID,0,VALID,100,VALID,0.0339617,VALID,18.9105,VALID,130,VALID,1.02058,
2009-05-29, 01:43:00,VALID,916.791,VALID,0,VALID,100,VALID,0.0169808,VALID,18.8915,VALID,129,VALID,0.650568,
2009-05-29, 01:44:00,VALID,916.771,VALID,0,VALID,100,VALID,0.0339617,VALID,18.8783,VALID,127,VALID,1.01254,
2009-05-29, 01:45:00,VALID,916.77,VALID,0,VALID,100,VALID,0,VALID,18.8683,VALID,127,VALID,0.928757,
2009-05-29, 01:46:00,VALID,916.761,VALID,0,VALID,100,VALID,0.0339617,VALID,18.8753,VALID,132,VALID,1.19586,
2009-05-29, 01:47:00,VALID,916.752,VALID,0,VALID,100,VALID,0.0169808,VALID,18.8748,VALID,142,VALID,0.898056,
2009-05-29, 01:48:00,VALID,916.75,VALID,0,VALID,100,VALID,-0.0169808,VALID,18.8614,VALID,135,VALID,1.16426,
2009-05-29, 01:49:00,VALID,916.752,VALID,0,VALID,100,VALID,0.0339617,VALID,18.8614,VALID,133,VALID,1.20113,
2009-05-29, 01:50:00,VALID,916.748,VALID,0,VALID,100,VALID,0,VALID,18.8391,VALID,134,VALID,1.20952,
2009-05-29, 01:51:00,VALID,916.751,VALID,0,VALID,100,VALID,0.0169808,VALID,18.8162,VALID,135,VALID,1.14558,
2009-05-29, 01:52:00,VALID,916.748,VALID,0,VALID,100,VALID,0.0509425,VALID,18.8095,VALID,139,VALID,1.0545,
2009-05-29, 01:53:00,VALID,916.722,VALID,0,VALID,100,VALID,0.0509425,VALID,18.8162,VALID,135,VALID,1.10429,
2009-05-29, 01:54:00,VALID,916.717,VALID,0,VALID,100,VALID,-0.0849042,VALID,18.8211,VALID,147,VALID,1.10574,
2009-05-29, 01:55:00,VALID,916.687,VALID,0,VALID,100,VALID,-0.0849042,VALID,18.8148,VALID,146,VALID,0.800223,
2009-05-29, 01:56:00,VALID,916.669,VALID,0,VALID,100,VALID,-0.0509425,VALID,18.8019,VALID,143,VALID,0.621003,
2009-05-29, 01:57:00,VALID,916.655,VALID,0,VALID,100,VALID,-0.0679233,VALID,18.8016,VALID,148,VALID,1.05614,
2009-05-29, 01:58:00,VALID,916.608,VALID,0,VALID,100,VALID,-0.101885,VALID,18.7951,VALID,141,VALID,1.04092,
2009-05-29, 01:59:00,VALID,916.577,VALID,0,VALID,100,VALID,-0.101885,VALID,18.7951,VALID,133,VALID,1.31504,
2009-05-29, 02:00:00,VALID,916.538,VALID,0,VALID,100,VALID,-0.0849042,VALID,18.7921,VALID,129,VALID,1.55646,
2009-05-29, 02:01:00,VALID,916.536,VALID,0,VALID,100,VALID,-0.101885,VALID,18.8021,VALID,131,VALID,1.28229,
2009-05-29, 02:02:00,VALID,916.523,VALID,0,VALID,100,VALID,-0.101885,VALID,18.7887,VALID,146,VALID,1.32236,
2009-05-29, 02:03:00,VALID,916.522,VALID,0,VALID,100,VALID,-0.0849042,VALID,18.7819,VALID,146,VALID,1.19989,
2009-05-29, 02:04:00,VALID,916.521,VALID,0,VALID,100,VALID,-0.0849042,VALID,18.7824,VALID,134,VALID,1.2843,
2009-05-29, 02:05:00,VALID,916.511,VALID,0,VALID,100,VALID,-0.101885,VALID,18.7794,VALID,134,VALID,1.33212,
2009-05-29, 02:06:00,VALID,916.501,VALID,0,VALID,100,VALID,-0.118866,VALID,18.7826,VALID,137,VALID,1.50057,
2009-05-29, 02:07:00,VALID,916.522,VALID,0,VALID,100,VALID,-0.0849042,VALID,18.7724,VALID,138,VALID,1.44313,
2009-05-29, 02:08:00,VALID,916.513,VALID,0,VALID,100,VALID,-0.101885,VALID,18.743,VALID,133,VALID,1.22039,
2009-05-29, 02:09:00,VALID,916.518,VALID,0,VALID,100,VALID,0,VALID,18.7101,VALID,139,VALID,1.14277,
2009-05-29, 02:10:00,VALID,916.513,VALID,0,VALID,100,VALID,0.0339617,VALID,18.6902,VALID,140,VALID,1.03016,
2009-05-29, 02:11:00,VALID,916.512,VALID,0,VALID,100,VALID,0.0339617,VALID,18.6837,VALID,140,VALID,1.37649,
2009-05-29, 02:12:00,VALID,916.517,VALID,0,VALID,100,VALID,0,VALID,18.6705,VALID,136,VALID,1.2474,
2009-05-29, 02:13:00,VALID,916.518,VALID,0,VALID,100,VALID,0,VALID,18.6545,VALID,138,VALID,1.11261,
2009-05-29, 02:14:00,VALID,916.531,VALID,0,VALID,100,VALID,0.0339617,VALID,18.6283,VALID,137,VALID,1.01705,
2009-05-29, 02:15:00,VALID,916.525,VALID,0,VALID,100,VALID,0,VALID,18.6118,VALID,135,VALID,0.970881,
2009-05-29, 02:16:00,VALID,916.514,VALID,0,VALID,100,VALID,0.0169808,VALID,18.6091,VALID,136,VALID,1.07958,
2009-05-29, 02:17:00,VALID,916.513,VALID,0,VALID,100,VALID,0.0169808,VALID,18.5829,VALID,133,VALID,1.06641,
2009-05-29, 02:18:00,VALID,916.493,VALID,0,VALID,100,VALID,0.0169808,VALID,18.5377,VALID,125,VALID,1.18423,
2009-05-29, 02:19:00,VALID,916.484,VALID,0,VALID,100,VALID,0.0169808,VALID,18.4689,VALID,125,VALID,1.08022,
2009-05-29, 02:20:00,VALID,916.466,VALID,0,VALID,100,VALID,0.0339617,VALID,18.4469,VALID,133,VALID,1.04741,
2009-05-29, 02:21:00,VALID,916.461,VALID,0,VALID,100,VALID,0.0339617,VALID,18.4404,VALID,146,VALID,1.06094,
2009-05-29, 02:22:00,VALID,916.468,VALID,0,VALID,100,VALID,0.0169808,VALID,18.4205,VALID,145,VALID,1.08937,
2009-05-29, 02:23:00,VALID,916.471,VALID,0,VALID,100,VALID,0,VALID,18.4177,VALID,141,VALID,1.09077,
2009-05-29, 02:24:00,VALID,916.474,VALID,0,VALID,100,VALID,0.0339617,VALID,18.411,VALID,134,VALID,1.10346,
2009-05-29, 02:25:00,VALID,916.482,VALID,0,VALID,100,VALID,0.0169808,VALID,18.4207,VALID,127,VALID,1.0564,
2009-05-29, 02:26:00,VALID,916.481,VALID,0,VALID,100,VALID,0.0339617,VALID,18.4274,VALID,131,VALID,0.868886,
2009-05-29, 02:27:00,VALID,916.485,VALID,0,VALID,100,VALID,0.0679233,VALID,18.4135,VALID,133,VALID,0.943452,
2009-05-29, 02:28:00,VALID,916.489,VALID,0,VALID,100,VALID,0.0339617,VALID,18.4071,VALID,139,VALID,0.967988,
2009-05-29, 02:29:00,VALID,916.499,VALID,0,VALID,100,VALID,0.0509425,VALID,18.4302,VALID,136,VALID,0.915838,
2009-05-29, 02:30:00,VALID,916.485,VALID,0,VALID,100,VALID,0.0509425,VALID,18.4203,VALID,134,VALID,0.819922,
2009-05-29, 02:31:00,VALID,916.491,VALID,0,VALID,100,VALID,0.0339617,VALID,18.4272,VALID,137,VALID,0.721591,
2009-05-29, 02:32:00,VALID,916.476,VALID,0,VALID,100,VALID,0,VALID,18.4135,VALID,135,VALID,0.860491,
2009-05-29, 02:33:00,VALID,916.47,VALID,0,VALID,100,VALID,0.0509425,VALID,18.3749,VALID,119,VALID,0.970238,
2009-05-29, 02:34:00,VALID,916.47,VALID,0,VALID,100,VALID,0.0509425,VALID,18.3427,VALID,111,VALID,1.06879,
2009-05-29, 02:35:00,VALID,916.444,VALID,0,VALID,100,VALID,0.101885,VALID,18.2801,VALID,92,VALID,0.932528,
2009-05-29, 02:36:00,VALID,916.432,VALID,0,VALID,100,VALID,0.118866,VALID,18.2187,VALID,81,VALID,1.01048,
2009-05-29, 02:37:00,VALID,916.422,VALID,0,VALID,100,VALID,0.0169808,VALID,18.206,VALID,92,VALID,0.957031,
2009-05-29, 02:38:00,VALID,916.42,VALID,0,VALID,100,VALID,0.0849042,VALID,18.206,VALID,95,VALID,0.847384,
2009-05-29, 02:39:00,VALID,916.433,VALID,0,VALID,100,VALID,-0.0849042,VALID,18.2201,VALID,95,VALID,0.89939,
2009-05-29, 02:40:00,VALID,916.442,VALID,0,VALID,100,VALID,-0.0849042,VALID,18.2203,VALID,100,VALID,0.874047,
2009-05-29, 02:41:00,VALID,916.434,VALID,0,VALID,100,VALID,-0.0509425,VALID,18.2398,VALID,98,VALID,0.592188,
2009-05-29, 02:42:00,VALID,916.42,VALID,0,VALID,100,VALID,-0.0169808,VALID,18.2071,VALID,96,VALID,0.424162,
2009-05-29, 02:43:00,VALID,916.389,VALID,0,VALID,100,VALID,-0.0679233,VALID,18.2333,VALID,113,VALID,0.73609,
2009-05-29, 02:44:00,VALID,916.38,VALID,0,VALID,100,VALID,0,VALID,18.282,VALID,119,VALID,0.81529,
2009-05-29, 02:45:00,VALID,916.378,VALID,0,VALID,100,VALID,-0.0679233,VALID,18.3149,VALID,126,VALID,0.755451,
2009-05-29, 02:46:00,VALID,916.379,VALID,0,VALID,100,VALID,-0.0509425,VALID,18.3237,VALID,130,VALID,0.448103,
2009-05-29, 02:47:00,VALID,916.391,VALID,0,VALID,100,VALID,-0.0339617,VALID,18.3403,VALID,131,VALID,0.0530895,
2009-05-29, 02:48:00,VALID,916.394,VALID,0,VALID,100,VALID,-0.0339617,VALID,18.3436,VALID,131,VALID,0,
2009-05-29, 02:49:00,VALID,916.398,VALID,0,VALID,100,VALID,-0.0169808,VALID,18.3239,VALID,131,VALID,0,
2009-05-29, 02:50:00,VALID,916.382,VALID,0,VALID,100,VALID,-0.0169808,VALID,18.2847,VALID,131,VALID,0,
2009-05-29, 02:51:00,VALID,916.383,VALID,0,VALID,100,VALID,-0.0339617,VALID,18.2495,VALID,131,VALID,0,
2009-05-29, 02:52:00,VALID,916.385,VALID,0,VALID,100,VALID,-0.0169808,VALID,18.1457,VALID,93,VALID,0,
2009-05-29, 02:53:00,VALID,916.386,VALID,0,VALID,100,VALID,-0.0169808,VALID,18.1226,VALID,89,VALID,0,
2009-05-29, 02:54:00,VALID,916.381,VALID,0,VALID,100,VALID,-0.0679233,VALID,18.152,VALID,89,VALID,0.103795,
2009-05-29, 02:55:00,VALID,916.369,VALID,0,VALID,100,VALID,0,VALID,18.1747,VALID,89,VALID,0.586682,
2009-05-29, 02:56:00,VALID,916.354,VALID,0,VALID,100,VALID,-0.0169808,VALID,18.165,VALID,89,VALID,0.539435,
2009-05-29, 02:57:00,VALID,916.337,VALID,0,VALID,100,VALID,-0.0169808,VALID,18.165,VALID,100,VALID,0.694511,
2009-05-29, 02:58:00,VALID,916.316,VALID,0,VALID,100,VALID,-0.0679233,VALID,18.1747,VALID,100,VALID,0.687863,
2009-05-29, 02:59:00,VALID,916.318,VALID,0,VALID,100,VALID,-0.0509425,VALID,18.1687,VALID,100,VALID,0.68045,
2009-05-29, 03:00:00,VALID,916.315,VALID,0,VALID,100,VALID,-0.0509425,VALID,18.1451,VALID,100,VALID,0.698718,
2009-05-29, 03:01:00,VALID,916.318,VALID,0,VALID,100,VALID,-0.0509425,VALID,18.1356,VALID,100,VALID,0.450921,
2009-05-29, 03:02:00,VALID,916.324,VALID,0,VALID,100,VALID,-0.0339617,VALID,18.1066,VALID,100,VALID,0.482013,
2009-05-29, 03:03:00,VALID,916.337,VALID,0,VALID,100,VALID,-0.0339617,VALID,18.045,VALID,100,VALID,0.541159,
2009-05-29, 03:04:00,VALID,916.335,VALID,0,VALID,100,VALID,-0.0509425,VALID,17.9672,VALID,100,VALID,0.650343,
2009-05-29, 03:05:00,VALID,916.352,VALID,0,VALID,100,VALID,-0.0339617,VALID,17.9933,VALID,100,VALID,0.759375,
2009-05-29, 03:06:00,VALID,916.361,VALID,0,VALID,100,VALID,-0.0169808,VALID,18.0807,VALID,100,VALID,0.931593,
2009-05-29, 03:07:00,VALID,916.366,VALID,0,VALID,100,VALID,-0.0169808,VALID,18.2069,VALID,100,VALID,1.14953,
2009-05-29, 03:08:00,VALID,916.389,VALID,0,VALID,100,VALID,-0.0509425,VALID,18.3174,VALID,113,VALID,1.0917,
2009-05-29, 03:09:00,VALID,916.398,VALID,0,VALID,100,VALID,-0.0169808,VALID,18.3758,VALID,122,VALID,1.06059,
2009-05-29, 03:10:00,VALID,916.409,VALID,0,VALID,100,VALID,-0.0169808,VALID,18.3885,VALID,138,VALID,1.14082,
2009-05-29, 03:11:00,VALID,916.423,VALID,0,VALID,100,VALID,-0.0339617,VALID,18.4082,VALID,141,VALID,0.864139,
2009-05-29, 03:12:00,VALID,916.423,VALID,0,VALID,100,VALID,-0.0339617,VALID,18.4082,VALID,141,VALID,0.686773,
2009-05-29, 03:13:00,VALID,916.405,VALID,0,VALID,100,VALID,-0.0169808,VALID,18.3823,VALID,143,VALID,0.76059,
2009-05-29, 03:14:00,VALID,916.376,VALID,0,VALID,100,VALID,-0.0339617,VALID,18.3533,VALID,143,VALID,0.805233,
2009-05-29, 03:15:00,VALID,916.38,VALID,0,VALID,100,VALID,-0.0169808,VALID,18.3369,VALID,142,VALID,0.962993,
2009-05-29, 03:16:00,VALID,916.369,VALID,0,VALID,100,VALID,0,VALID,18.3174,VALID,135,VALID,0.690662,
2009-05-29, 03:17:00,VALID,916.384,VALID,0,VALID,100,VALID,-0.0169808,VALID,18.2919,VALID,133,VALID,0.632031,
2009-05-29, 03:18:00,VALID,916.392,VALID,0,VALID,100,VALID,-0.0679233,VALID,18.2495,VALID,128,VALID,0.658789,
2009-05-29, 03:19:00,VALID,916.393,VALID,0,VALID,100,VALID,-0.0509425,VALID,18.2071,VALID,127,VALID,0.603051,
2009-05-29, 03:20:00,VALID,916.414,VALID,0,VALID,100,VALID,-0.0679233,VALID,18.1682,VALID,127,VALID,0.608631,
2009-05-29, 03:21:00,VALID,916.428,VALID,0,VALID,100,VALID,0,VALID,18.181,VALID,127,VALID,0.759816,
2009-05-29, 03:22:00,VALID,916.448,VALID,0,VALID,100,VALID,-0.0169808,VALID,18.1939,VALID,130,VALID,0.88457,
2009-05-29, 03:23:00,VALID,916.451,VALID,0,VALID,100,VALID,-0.0679233,VALID,18.1944,VALID,132,VALID,0.547828,
2009-05-29, 03:24:00,VALID,916.462,VALID,0,VALID,100,VALID,0,VALID,18.1518,VALID,131,VALID,0.450945,
2009-05-29, 03:25:00,VALID,916.481,VALID,0,VALID,100,VALID,-0.0169808,VALID,18.1453,VALID,121,VALID,0.75,
2009-05-29, 03:26:00,VALID,916.485,VALID,0,VALID,100,VALID,-0.0169808,VALID,18.1812,VALID,121,VALID,0.801417,
2009-05-29, 03:27:00,VALID,916.515,VALID,0,VALID,100,VALID,-0.0339617,VALID,18.2234,VALID,121,VALID,0.680804,
2009-05-29, 03:28:00,VALID,916.531,VALID,0,VALID,100,VALID,0,VALID,18.2134,VALID,122,VALID,0.903963,
2009-05-29, 03:29:00,VALID,916.552,VALID,0,VALID,100,VALID,0,VALID,18.2136,VALID,127,VALID,0.781783,
2009-05-29, 03:30:00,VALID,916.575,VALID,0,VALID,100,VALID,0,VALID,18.1937,VALID,136,VALID,0.832775,
2009-05-29, 03:31:00,VALID,916.596,VALID,0,VALID,100,VALID,-0.0339617,VALID,18.1939,VALID,138,VALID,0.628634,
2009-05-29, 03:32:00,VALID,916.594,VALID,0,VALID,100,VALID,0,VALID,18.1972,VALID,138,VALID,0.751674,
2009-05-29, 03:33:00,VALID,916.595,VALID,0,VALID,100,VALID,-0.0169808,VALID,18.1842,VALID,138,VALID,0.840843,
2009-05-29, 03:34:00,VALID,916.585,VALID,0,VALID,100,VALID,-0.0169808,VALID,18.2037,VALID,137,VALID,1.03258,
2009-05-29, 03:35:00,VALID,916.578,VALID,0,VALID,100,VALID,-0.0169808,VALID,18.2234,VALID,135,VALID,0.978423,
2009-05-29, 03:36:00,VALID,916.565,VALID,0,VALID,100,VALID,-0.0339617,VALID,18.2266,VALID,135,VALID,0.970424,
2009-05-29, 03:37:00,VALID,916.553,VALID,0,VALID,100,VALID,0,VALID,18.2169,VALID,137,VALID,0.664063,
2009-05-29, 03:38:00,VALID,916.556,VALID,0,VALID,100,VALID,-0.0339617,VALID,18.1974,VALID,149,VALID,0.871875,
2009-05-29, 03:39:00,VALID,916.543,VALID,0,VALID,100,VALID,0,VALID,18.1775,VALID,157,VALID,1.06587,
2009-05-29, 03:40:00,VALID,916.528,VALID,0,VALID,100,VALID,-0.0169808,VALID,18.1712,VALID,156,VALID,1.06068,